WetterOnline ( http://www.wetteronline.de )

Wetter aktuell Kassel

Aktuelles Wetter: Schauenburg-Elgershausen (317m)

6-stündlich | Neueste Meldungen
Ortszeit Temperatur Wetter
So, 22.07. 2:00 18.8° C bewölkt
Sa, 21.07. 20:00 24.0° C bedeckt
Sa, 21.07. 14:00 25.1° C bedeckt
Sa, 21.07. 8:00 20.8° C bewölkt
Sa, 21.07. 2:00 20.5° C wolkig
Fr, 20.07. 20:00 27.2° C wolkenlos
Fr, 20.07. 14:00 26.4° C leicht bewölkt
Fr, 20.07. 8:00 19.1° C fast wolkenlos
Ortszeit Temperatur Wetter
So, 22.07. 6:00 17.5° C bewölkt
So, 22.07. 5:50 17.5° C bewölkt
So, 22.07. 5:40 17.2° C bewölkt
So, 22.07. 5:30 17.5° C bedeckt
So, 22.07. 5:20 17.5° C bedeckt
So, 22.07. 5:10 17.4° C bedeckt
So, 22.07. 5:00 17.4° C bewölkt
So, 22.07. 4:30 17.4° C wolkig
So, 22.07. 4:00 17.7° C wolkig
So, 22.07. 3:30 18.2° C bewölkt
So, 22.07. 3:00 18.4° C bewölkt
Ortszeit Relative Feuchte Sichtweite
So, 22.07. 2:00 69% 40 km
Sa, 21.07. 20:00 47% 30 km
Sa, 21.07. 14:00 38% 30 km
Sa, 21.07. 8:00 50% 35 km
Sa, 21.07. 2:00 46% 30 km
Fr, 20.07. 20:00 25% -
Fr, 20.07. 14:00 26% 35 km
Fr, 20.07. 8:00 57% 45 km
Ortszeit Relative Feuchte Sichtweite
So, 22.07. 6:00 80% 28 km
So, 22.07. 5:50 80% -
So, 22.07. 5:40 82% -
So, 22.07. 5:30 80% -
So, 22.07. 5:20 80% -
So, 22.07. 5:10 82% -
So, 22.07. 5:00 82% 30 km
So, 22.07. 4:30 82% 30 km
So, 22.07. 4:00 81% 27 km
So, 22.07. 3:30 74% 30 km
So, 22.07. 3:00 72% 35 km
Ortszeit Niederschlagsmenge Niederschlagsart
So, 22.07. 2:00 0.0 l/m2 in 6 Std. -
Sa, 21.07. 20:00 0.0 l/m2 in 12 Std. -
Sa, 21.07. 14:00 0.0 l/m2 in 6 Std. -
Sa, 21.07. 8:00 0.0 l/m2 in 12 Std. -
Sa, 21.07. 2:00 0.0 l/m2 in 6 Std. -
Fr, 20.07. 20:00 0.0 l/m2 in 12 Std. -
Fr, 20.07. 14:00 0.0 l/m2 in 6 Std. -
Fr, 20.07. 8:00 0.0 l/m2 in 12 Std. -
Ortszeit Niederschlagsmenge Niederschlagsart
So, 22.07. 6:00 0.0 l/m2 in 1 Std. -
So, 22.07. 5:50 keine Meldung -
So, 22.07. 5:40 keine Meldung -
So, 22.07. 5:30 0.0 l/m2 in 1 Std. -
So, 22.07. 5:20 keine Meldung -
So, 22.07. 5:10 keine Meldung -
So, 22.07. 5:00 0.0 l/m2 in 1 Std. -
So, 22.07. 4:30 0.0 l/m2 in 1 Std. -
So, 22.07. 4:00 0.0 l/m2 in 1 Std. -
So, 22.07. 3:30 0.0 l/m2 in 1 Std. -
So, 22.07. 3:00 0.0 l/m2 in 1 Std. -
Ortszeit Stärke Spitze Richtung
km/h Bft. km/h Grad Sektor
So, 22.07. 2:00 11 2 18 80° O
Sa, 21.07. 20:00 7 2 24 290° W
Sa, 21.07. 14:00 11 2 22 90° O
Sa, 21.07. 8:00 6 1 19 80° O
Sa, 21.07. 2:00 9 2 26 60° NO
Fr, 20.07. 20:00 6 1 26 240° SW
Fr, 20.07. 14:00 7 2 22 180° S
Fr, 20.07. 8:00 2 1 19 300° NW
Ortszeit Stärke Spitze Richtung
km/h Bft. km/h Grad Sektor
So, 22.07. 6:00 4 1 22 280° W
So, 22.07. 5:50 4 1 - 280° W
So, 22.07. 5:40 4 1 - 50° NO
So, 22.07. 5:30 7 2 22 60° NO
So, 22.07. 5:20 7 2 - 60° NO
So, 22.07. 5:10 11 2 - 70° O
So, 22.07. 5:00 17 3 20 70° O
So, 22.07. 4:30 9 2 13 90° O
So, 22.07. 4:00 4 1 7 140° SO
So, 22.07. 3:30 4 1 7 140° SO
So, 22.07. 3:00 2 1 15 120° SO
Ortszeit Untergrenze Bedeckung Gattung
total tief tief mittel hoch
So, 22.07. 2:00 2100 m 8/8 6/8 - - -
Sa, 21.07. 20:00 3600 m 8/8 8/8 - - -
Sa, 21.07. 14:00 3000 m 8/8 8/8 - - -
Sa, 21.07. 8:00 2700 m 8/8 7/8 - - -
Sa, 21.07. 2:00 9000 m 8/8 0/8 - - -
Fr, 20.07. 20:00 - 0/8 0/8 - - -
Fr, 20.07. 14:00 7500 m 5/8 0/8 - - -
Fr, 20.07. 8:00 9000 m 1/8 0/8 - - -
Ortszeit Bedeckungsgrad in Achtel und Wolkenuntergrenze
So, 22.07. 6:00 7(1500m) 7(3300m) 8(4200m)
So, 22.07. 5:50 7(1500m) 7(3300m) 8(4200m)
So, 22.07. 5:40 7(1500m) 8(4200m)
So, 22.07. 5:30 8(1500m) 8(4200m)
So, 22.07. 5:20 8(1500m) 8(4200m)
So, 22.07. 5:10 8(1500m) 8(4200m)
So, 22.07. 5:00 6(1500m) 8(3900m) 8(4500m)
So, 22.07. 4:30 1(1500m) 8(4200m) 8(4500m)
So, 22.07. 4:00 2(1500m) 7(4200m) 8(4500m)
So, 22.07. 3:30 4(1500m) 8(4500m)
So, 22.07. 3:00 5(1500m) 7(2700m) 8(4500m)
Ortszeit Luftdruck NN (hPa) Tendenz (hPa in 3 Std.)
So, 22.07. 2:00 1013 + 0,5
Sa, 21.07. 20:00 1011 - 0,4
Sa, 21.07. 14:00 1011 + 0,3
Sa, 21.07. 8:00 1010 + 0,1
Sa, 21.07. 2:00 1011 - 0,2
Fr, 20.07. 20:00 1010 - 1,2
Fr, 20.07. 14:00 1013 - 1,0
Fr, 20.07. 8:00 1015 - 0,8
Ortszeit Luftdruck NN (hPa) Tendenz (hPa in 3 Std.)
So, 22.07. 6:00 1013 0,0
So, 22.07. 5:50 1013 keine Meldung
So, 22.07. 5:40 1013 keine Meldung
So, 22.07. 5:30 1013 0,0
So, 22.07. 5:20 1013 keine Meldung
So, 22.07. 5:10 1013 keine Meldung
So, 22.07. 5:00 1013 0,0
So, 22.07. 4:30 1013 + 0,2
So, 22.07. 4:00 1013 + 0,4
So, 22.07. 3:30 1013 + 0,5
So, 22.07. 3:00 1013 + 0,6
Ortszeit Schneehöhe (cm)
So, 22.07. 2:00 -
Sa, 21.07. 20:00 -
Sa, 21.07. 14:00 -
Sa, 21.07. 8:00 -
Sa, 21.07. 2:00 -
Fr, 20.07. 20:00 -
Fr, 20.07. 14:00 -
Fr, 20.07. 8:00 -
Ortszeit Schneehöhe (cm)
So, 22.07. 6:00 -
So, 22.07. 5:50 -
So, 22.07. 5:40 -
So, 22.07. 5:30 -
So, 22.07. 5:20 -
So, 22.07. 5:10 -
So, 22.07. 5:00 -
So, 22.07. 4:30 -
So, 22.07. 4:00 -
So, 22.07. 3:30 -
So, 22.07. 3:00 -
Link zu dieser Seite / Seite empfehlen

Das Wetter in ...